Location: Courlevon
(46.8893°N, 7.1106°E)
Time: 12:19:47
(UTC+00:00)

Daily predictions for brighter satellites

Satellite Brightness Start Highest point End
(mag) Time Altitude Azimuth Time Altitude Azimuth Time Altitude Azimuth
Terra 3.3 20:01:54 10° ESE 20:05:34 23° ENE 20:09:15 10° NNE
Spot 2 Rocket 4.4 20:02:10 10° SE 20:06:44 34° ENE 20:11:19 10° N
CZ-4B R/B 1.0 20:05:25 10° NNE 20:08:16 58° ESE 20:11:07 10° S
MetOp-B 4.2 20:04:23 10° SSE 20:09:41 70° ENE 20:15:02 10° N
SPOT 1/Viking Rocket 3.6 20:04:41 10° SSE 20:09:49 86° WSW 20:15:02 10° NNW
H-2A R/B 2.3 20:06:18 10° NNE 20:10:47 82° WNW 20:15:16 10° SSW
Lacrosse 5 rocket 4.0 20:13:06 10° WSW 20:13:30 10° WSW 20:13:54 10° SW
Cosmos 1536 Rocket 3.7 20:10:11 10° S 20:14:25 57° E 20:18:42 10° NNE
USA 245 3.5 20:12:57 10° SSE 20:16:47 46° ENE 20:19:54 10° N
CARTOSAT-1 3.6 20:13:46 10° SSE 20:18:03 69° ENE 20:22:21 10° N
Cosmos 1980 Rocket 3.3 20:13:02 10° NNW 20:18:12 34° NE 20:23:18 10° ESE
Cosmos 1697 Rocket 3.0 20:12:40 10° NNW 20:18:14 59° ENE 20:23:45 10° SE
SL-16 R/B 4.4 20:15:37 10° N 20:18:29 14° NE 20:21:21 10° ENE
Cosmos 1452 Rocket 3.5 20:17:26 10° SSW 20:22:41 81° ESE 20:27:58 10° NNE
USA 276 3.2 20:19:58 10° WNW 20:22:54 43° N 20:25:50 10° ENE
ARIANE 5 R/B 4.1 20:21:32 10° ESE 20:25:02 23° ENE 20:28:32 10° NNE
Lacrosse 5 3.6 20:21:29 10° WNW 20:25:33 24° SW 20:29:38 10° S
Cosmos 2344 4.5 20:17:35 10° NW 20:26:13 65° NE 20:38:10 10° SE
ERS-1 Rocket 3.6 20:22:24 10° SE 20:27:09 44° ENE 20:31:54 10° N
Cosmos 1110 Rocket 4.1 20:22:20 10° S 20:27:29 58° ESE 20:32:42 10° NNE
COSMOS 2406 3.7 20:26:20 10° S 20:31:39 40° ESE 20:36:58 10° NE
Cosmos 2074 Rocket 4.0 20:32:25 10° N 20:38:43 87° E 20:44:58 10° S
Cosmos 1726 Rocket 4.3 20:37:38 10° N 20:41:40 37° ENE 20:44:55 15° SE
Cosmos 968 Rocket 4.2 20:37:17 10° N 20:42:15 42° ENE 20:46:32 14° SE
Cosmos 1833 Rocket 2.6 20:36:50 10° SSW 20:42:26 79° ESE 20:48:05 10° NNE
Cosmos 1703 3.2 20:40:28 10° S 20:44:18 87° W 20:48:11 10° N
Cosmos 1408 4.1 20:45:32 15° ESE 20:47:01 19° E 20:49:30 10° NE
Nadezhda 1 Rocket 4.0 20:43:36 10° S 20:49:35 65° E 20:55:36 10° NNE
Cosmos 2322 Rocket 4.3 20:50:01 10° N 20:53:39 17° NE 20:57:17 10° E
USA 267 4.3 20:48:59 10° ENE 20:53:50 22° SE 20:58:23 11° S
Cosmos 1295 Rocket 4.5 20:48:44 10° N 20:54:59 78° E 21:00:33 13° SSE
Cosmos 1825 4.3 20:54:14 11° ESE 20:55:22 12° E 20:56:57 10° ENE
RESURS DK-1 3.4 20:51:37 10° NW 20:55:30 38° WSW 20:59:05 11° S
Cosmos 1867 3.9 20:55:50 10° NNW 21:01:17 62° NE 21:05:33 16° SE
Cosmos 2084 Rocket 3.2 21:00:21 10° NW 21:04:16 78° SW 21:06:56 20° SSE
X-37B 1.4 21:03:01 10° W 21:05:30 28° SSW 21:06:14 24° S
Helios 1A Rocket 3.0 21:03:00 16° S 21:06:14 79° WSW 21:10:22 10° NNW
Cosmos 2278 4.4 21:01:04 10° NNW 21:06:34 45° NE 21:10:53 16° ESE
SL-8 R/B 4.4 21:02:59 10° W 21:07:26 38° SSW 21:10:19 19° SSE
Cosmos 2154 Rocket 4.1 21:05:29 10° NNW 21:11:42 76° W 21:17:21 13° S
Cosmos 1328 3.8 21:13:35 13° S 21:17:05 87° W 21:21:06 10° N
Cosmos 2082 Rocket 2.2 21:12:47 10° SSW 21:18:25 65° ESE 21:24:04 10° NNE
CZ-2C R/B 3.6 21:16:46 10° NNE 21:21:21 89° E 21:25:23 13° SSW
Cosmos 2228 4.1 21:19:39 10° NNW 21:23:37 39° W 21:27:18 11° SSW
Cosmos 1892 Rocket 3.5 21:21:09 18° S 21:24:20 75° E 21:28:42 10° NNE
Cosmos 2360 Rocket 4.2 21:25:01 10° N 21:29:04 20° NE 21:33:07 10° E
SL-8 Rocket 4.2 21:22:59 10° N 21:29:10 61° ENE 21:33:12 22° SSE
USA 234 4.3 21:23:11 10° E 21:29:21 45° NNE 21:35:31 10° NW
Resurs 01 Rocket 4.3 21:29:14 10° WSW 21:30:53 12° W 21:32:34 10° WNW
Cosmos 2058 Rocket 3.1 21:27:25 10° N 21:31:52 73° E 21:34:19 26° SSE
Cosmos 1626 Rocket 4.4 21:33:53 25° SE 21:35:28 33° E 21:39:24 10° NNE
SAR-Lupe-1 4.4 21:33:26 10° NNE 21:36:54 45° E 21:38:02 33° SSE
Cosmos 1633 4.2 21:38:43 18° E 21:39:02 18° E 21:41:25 10° NE
Cosmos 1992 Rocket 4.3 21:36:31 23° S 21:39:30 49° ESE 21:44:33 10° NNE
SPOT 5 4.0 21:37:57 13° SSW 21:41:19 32° W 21:45:14 10° NNW
Cosmos 1486 Rocket 4.2 21:37:16 10° NNW 21:42:28 61° ENE 21:45:24 25° SE
Terra 2.5 21:39:42 18° S 21:43:00 49° W 21:47:39 10° NNW
Cosmos 1892 2.5 21:44:18 29° S 21:46:05 85° E 21:49:53 10° N
SJ 16-02 3.0 21:43:22 10° N 21:47:01 24° ENE 21:49:28 16° ESE
Cosmos 2366 rocket 4.1 21:42:33 10° N 21:48:56 72° E 21:52:47 25° SSE
FALCON 9 DEB 3.0 21:45:40 10° WNW 21:48:56 77° NNE 21:50:08 36° ESE
Cosmos 2218 Rocket 4.1 21:47:28 10° N 21:53:55 78° E 21:57:46 26° SSE
ASTEX 1 3.4 21:50:50 10° N 21:55:52 87° E 21:58:45 26° S
CSL-04 DEB 4.5 21:53:36 10° NNE 21:57:58 77° ESE 22:00:05 30° S
USA 276 2.2 21:55:51 10° WNW 21:58:53 69° NNE 21:59:52 38° E
ADEOS Rocket 4.3 21:55:59 18° ESE 22:01:09 43° ENE 22:08:20 10° N
ARIANE 5 R/B 3.5 21:58:45 21° SSW 22:01:15 41° W 22:05:28 10° NNW
Cosmos 1697 Rocket 4.4 21:57:23 10° NW 22:01:46 24° WSW 22:05:32 12° SSW
Cosmos 1980 Rocket 2.9 21:56:56 10° NW 22:02:21 46° WSW 22:05:29 23° SSW
GP-B 3.1 21:58:21 10° N 22:02:48 78° W 22:05:01 29° SSW
SL-16 R/B 2.6 21:58:19 10° NNW 22:03:55 56° ENE 22:07:09 25° SE
Cosmos 2219 Rocket 4.5 22:01:42 10° N 22:05:26 18° NE 22:09:09 10° E
Cosmos 1959 Rocket 4.4 22:00:30 10° N 22:06:39 89° W 22:10:08 28° S
ATLAS 5 CENTAUR R/B 1.1 22:08:26 22° SW 22:10:44 88° NW 22:14:56 10° NE
Cosmos 1354 Rocket 4.4 22:06:17 10° NNW 22:11:30 54° ENE 22:14:08 28° SE
Cosmos 2341 Rocket 4.4 22:05:21 10° NNW 22:11:31 58° W 22:15:36 22° SSW
SL-4 R/B 3.8 22:14:12 14° E 22:14:12 14° E 22:14:55 10° E
In-Cosmos 22 Rocket 4.3 22:14:44 22° SSW 22:18:23 72° WNW 22:23:49 10° N
Cosmos 1503 Rocket 4.0 22:15:24 10° NNW 22:20:43 77° ENE 22:23:03 34° SSE
Cosmos 1408 4.2 22:19:29 16° WSW 22:21:31 27° WNW 22:24:31 10° NNW
Okean 1-7 Rocket 3.8 22:19:49 30° SSW 22:21:57 70° W 22:26:29 10° N
Cosmos 1869 3.6 22:21:47 10° NNW 22:25:37 58° W 22:26:47 39° SSW
Cosmos 1758 Rocket 3.7 22:25:31 42° SSE 22:26:42 57° E 22:31:01 10° NNE
Cosmos 1825 2.7 22:28:50 32° SW 22:30:13 51° WNW 22:33:54 10° N
Spot 4 3.8 22:35:11 40° SSE 22:36:56 89° ENE 22:41:46 10° NNW
USA 267 3.1 22:31:01 10° NE 22:37:35 74° SE 22:44:06 10° SW
Cosmos 1812 Rocket 3.5 22:33:18 10° N 22:37:48 83° W 22:39:08 45° S
Cosmos 44 4.3 22:38:36 26° ESE 22:38:36 26° ESE 22:42:09 10° ENE
Cosmos 2322 Rocket 2.3 22:33:01 10° NNW 22:38:44 74° ENE 22:41:25 32° SE
Cosmos 2181 Rocket 4.5 22:34:39 19° SSW 22:39:01 55° WNW 22:45:10 10° N
Cosmos-2242 2.9 22:37:49 10° N 22:42:06 88° E 22:43:11 50° S
BREEZE-M DEB (TANK) 3.9 22:39:31 10° WNW 22:42:50 80° NNE 22:55:57 10° ESE
Cosmos 1821 Rocket 3.9 22:37:14 10° N 22:43:31 89° E 22:46:22 34° S
Cosmos 1602 Rocket 3.8 22:48:54 36° SW 22:50:26 61° WNW 22:54:44 10° N
Cosmos 2333 Rocket 3.1 22:51:13 10° NNW 22:56:45 44° NE 23:00:26 20° ESE
ALOS 2 2.5 23:00:42 50° S 23:01:50 81° WSW 23:06:15 10° NNW
BREEZE-M DEB (TANK) 4.5 22:45:13 10° WNW 23:02:16 85° NNE 23:06:22 12° ESE
Cosmos 2082 Rocket 4.2 22:58:16 10° WSW 23:02:59 26° NW 23:07:42 10° N
Cosmos 972 Rocket 4.4 22:58:57 10° NNW 23:04:07 60° ENE 23:06:40 32° SE
Nadezhda 3 Rocket 3.9 23:02:13 34° SSW 23:05:07 83° W 23:11:20 10° N
Gbstr 26 Del rocket 3.0 23:05:11 52° S 23:05:55 60° SE 23:10:53 10° ENE
Cosmos 1340 Rocket 2.9 23:05:53 52° SE 23:06:18 55° E 23:10:12 10° NNE
Cosmos 1606 2.9 23:06:59 10° NNW 23:10:48 59° W 23:11:18 53° SW
USA 234 3.2 23:07:03 19° SE 23:12:01 89° SW 23:18:38 10° NW
Cosmos 1633 3.9 23:12:29 26° W 23:13:18 29° WNW 23:16:23 10° NNW
Cosmos 2360 Rocket 2.1 23:08:12 10° NNW 23:13:55 88° ENE 23:16:14 38° SSE
BREEZE-M DEB (TANK) 3.6 23:05:40 10° WSW 23:15:26 76° NNW 23:18:36 10° ENE
Cosmos 1953 Rocket 3.6 23:15:54 52° SSE 23:16:51 71° E 23:21:15 10° NNE
Cosmos 2333 4.5 23:15:12 10° NNW 23:20:58 65° ENE 23:23:58 29° SE
Cosmos 1763 Rocket 4.5 23:21:39 29° SE 23:22:52 32° E 23:27:32 10° NE
H-2A R/B 4.0 23:21:29 10° N 23:25:35 53° WNW 23:26:52 37° SW
SJ 16-02 2.0 23:21:34 10° NW 23:25:42 39° WSW 23:26:24 37° SW
Cosmos 1825 Rocket 3.8 23:24:44 43° SW 23:25:53 60° WNW 23:30:11 10° N
PSLV R/B 4.0 23:23:29 10° NNE 23:28:11 58° E 23:29:18 45° SSE
Cosmos 1782 4.3 23:25:08 10° NNE 23:28:35 28° ENE 23:29:46 24° ESE
Cosmos 2058 3.2 23:28:04 44° SW 23:29:03 58° WNW 23:33:12 10° N
Cosmos 1833 4.1 23:27:13 41° S 23:29:13 74° ESE 23:34:50 10° NNE
Cosmos 990 Rocket 4.5 23:29:45 10° NNW 23:34:48 53° ENE 23:37:18 28° SE
USA 290 3.9 23:35:12 10° N 23:38:01 26° ENE 23:38:48 24° E
Cosmos 2237 Rocket 4.4 23:34:38 10° N 23:39:01 22° NE 23:43:22 10° E
Cosmos 2221 2.4 23:34:55 10° N 23:39:18 88° ENE 23:40:15 55° SSE
COSMOS 2428 3.4 23:37:47 10° NNW 23:43:22 50° ENE 23:47:19 19° SE
Cosmos 2297 Rocket 4.3 23:44:07 11° ESE 23:46:08 13° E 23:48:37 10° ENE
ADEOS Rocket 4.0 23:42:56 29° SSW 23:46:28 49° W 23:53:57 10° NNW
ISS -2.7 23:47:45 35° E 23:47:45 35° E 23:49:55 10° ENE
ERS-2 2.3 23:43:32 10° N 23:47:05 59° WNW 23:47:29 54° WSW
Cosmos 1842 Rocket 3.5 23:42:44 10° N 23:47:15 80° E 23:48:21 51° SSE
SL-16 R/B 3.5 23:43:05 10° NW 23:47:38 25° WSW 23:49:00 23° SW
COSMOS 2487 2.7 23:49:36 51° ENE 23:49:36 51° ENE 23:52:08 10° NNE
Nimbus 7 Rocket 4.4 23:43:38 10° NNE 23:49:37 87° ESE 23:52:10 37° SSW
Cosmos 2219 Rocket 2.3 23:44:39 10° NNW 23:50:22 77° ENE 23:53:13 31° SE
Cosmos 468 Rocket 4.5 23:49:02 38° SSE 23:50:33 49° ESE 23:55:40 10° NNE
SL-4 R/B 2.0 23:49:35 33° W 23:51:00 63° NNW 23:54:44 10° ENE
SL-27 R/B 2.3 23:53:43 75° ENE 23:53:43 75° ENE 23:56:49 10° NNE
Cosmos 1934 Rocket 4.3 23:47:46 10° NNW 23:53:42 54° W 23:56:10 34° SSW
Cosmos 540 Rocket 4.3 23:52:58 31° SE 23:54:22 36° ESE 23:59:03 10° NE
ATLAS 5 CENTAUR R/B 4.1 23:53:13 10° WNW 23:56:00 18° NNW 23:59:02 10° NNE
